GEFSSGP_con_prob3kmehi_180.txt.gz
EHI
0 0 0 0 0 0 0 0 2 3 4 8 14 20 24 18 8 3 1 5 16 23 23 28 36 34 25 17 13 11 8 6 4 4 2 1 0 0 0 0 0 0 0 0 0 0 0 0 0
0 0 0 0 0 0 0 1 3 5 7 11 16 19 20 15 8 3 3 9 21 26 24 28 37 38 29 19 13 11 10 7 6 4 2 0 0 0 0 0 0 0 0 0 0 0 0 0 0
0 0 0 0 0 0 0 2 5 8 12 16 20 21 18 11 6 4 7 16 25 26 24 28 37 39 32 21 13 11 10 8 6 4 1 0 0 0 0 0 0 0 0 0 0 0 0 0 0
0 0 0 0 0 0 1 2 6 11 16 20 23 23 18 12 10 12 15 21 25 25 22 27 36 37 32 23 15 12 10 8 6 4 2 1 1 1 0 0 0 0 0 0 0 0 0 0 0
0 0 0 0 0 0 1 3 8 13 18 23 27 27 21 18 21 23 23 24 26 25 23 26 32 34 31 26 19 14 12 10 8 7 5 4 3 2 1 1 1 0 0 0 0 0 0 0 0
0 0 0 0 0 0 1 5 11 17 20 25 30 29 25 24 28 28 25 24 26 28 26 24 26 29 30 27 22 18 15 13 10 9 8 7 5 3 2 2 1 0 0 0 0 0 0 0 0
0 0 0 0 0 0 1 7 15 19 21 24 26 25 23 26 29 29 27 23 22 25 26 23 21 22 24 24 21 20 19 14 10 8 8 7 5 3 2 2 1 0 0 0 0 0 0 0 0
0 0 1 1 0 0 2 8 14 18 22 23 21 19 22 28 34 35 30 23 16 17 20 21 19 17 17 17 18 20 18 13 9 6 5 5 4 3 2 2 1 1 1 1 1 1 1 0 0
0 1 2 2 1 0 2 8 13 19 24 27 25 24 28 35 41 42 35 25 17 13 13 14 14 13 11 11 13 14 12 9 6 4 3 3 3 3 2 1 0 1 1 2 3 3 2 0 0
1 2 3 3 2 2 3 6 13 19 24 27 30 33 37 42 44 43 37 30 22 15 10 7 7 8 8 8 8 8 7 5 4 3 3 3 3 2 1 0 0 0 2 3 3 3 2 1 0
1 2 3 3 3 3 5 7 12 16 17 21 27 33 38 40 39 38 37 32 25 18 11 6 5 4 4 5 6 5 4 2 2 2 3 2 1 1 0 0 0 0 2 3 3 2 2 1 0
0 1 2 3 4 5 8 10 13 12 12 17 24 31 34 33 30 31 35 34 28 21 15 11 9 5 4 4 5 4 3 2 1 1 1 2 1 1 1 0 0 1 2 2 1 1 1 0 0
0 0 1 2 4 6 9 12 12 13 15 21 28 33 34 31 27 30 36 36 32 27 21 17 14 10 7 7 7 7 5 4 2 2 2 3 3 3 2 1 1 1 2 1 0 0 0 0 0
0 0 1 2 3 4 6 9 10 13 20 27 33 37 37 34 33 36 38 37 35 32 29 24 19 15 13 11 11 10 8 6 5 4 4 5 4 4 3 3 2 2 1 0 0 0 0 0 0
0 0 1 1 1 1 2 3 6 13 22 29 36 41 42 39 37 38 39 37 35 34 35 32 26 21 18 15 12 10 8 6 5 4 4 4 4 4 3 3 3 1 0 0 0 0 0 0 0
0 0 0 0 0 0 0 1 5 13 22 29 35 42 43 39 35 34 35 35 34 36 37 36 30 25 22 18 13 10 7 5 4 3 3 4 5 4 3 3 2 1 0 0 0 0 0 0 0
0 0 0 0 0 0 0 2 7 15 22 28 33 39 41 36 31 31 34 36 36 36 36 34 31 28 23 17 14 12 9 6 4 3 3 4 5 5 4 3 2 1 0 0 0 0 0 0 0
0 0 0 0 0 0 1 6 11 17 22 26 31 37 39 35 31 33 38 41 40 37 35 33 31 27 21 15 13 12 10 8 6 4 4 4 5 6 5 4 2 0 0 0 0 0 0 0 0
0 0 0 0 0 1 2 7 12 17 20 23 27 33 36 34 34 37 42 44 41 36 33 31 28 24 18 13 11 10 9 7 5 4 4 4 5 6 6 5 2 0 0 0 0 0 0 0 0
0 0 0 0 1 2 3 5 8 12 15 18 21 26 30 32 34 37 39 40 38 33 29 27 23 18 14 11 9 8 7 5 4 4 4 5 6 7 6 4 1 0 0 0 0 0 0 0 0
0 0 0 0 1 2 2 3 3 5 8 11 15 20 25 30 34 35 36 37 36 31 26 23 18 13 10 7 7 6 5 3 3 3 4 4 4 5 5 3 1 0 0 0 0 0 0 0 0
0 0 0 0 0 1 1 1 1 2 4 7 12 16 22 29 33 35 35 35 33 28 23 18 13 9 6 5 4 5 4 3 2 2 2 2 2 2 2 2 1 0 0 0 0 0 0 0 0
0 0 0 0 0 0 0 0 0 1 3 6 10 14 19 26 32 34 34 32 28 24 20 16 10 7 5 4 4 4 3 3 2 1 0 0 0 0 0 1 0 0 0 0 0 0 0 0 0
0 0 0 0 0 0 0 0 0 2 3 5 9 14 18 23 28 31 32 30 25 20 18 15 10 7 6 5 4 3 3 3 2 1 1 1 1 1 1 2 1 0 0 0 0 0 0 0 0
0 0 0 0 0 0 0 0 1 2 4 5 8 13 18 21 25 28 30 27 21 16 14 13 10 8 6 5 4 3 3 3 4 3 3 3 3 3 3 3 2 0 0 0 0 0 0 0 0
0 0 0 0 0 0 0 0 1 3 5 6 9 14 17 21 25 27 26 21 15 12 11 12 11 8 6 5 4 4 3 4 5 5 6 5 4 3 2 2 1 0 0 0 0 0 0 0 0
0 0 0 0 0 0 0 0 1 2 5 7 10 13 16 20 24 23 20 16 12 9 10 11 11 8 6 5 4 3 3 3 4 6 6 5 3 1 1 1 0 0 0 0 0 0 0 0 0
0 0 0 0 0 0 0 0 0 1 3 5 8 11 15 18 19 17 15 14 11 10 9 10 10 7 6 5 4 3 3 3 4 5 5 3 1 0 0 0 0 0 0 0 0 0 0 0 0
0 0 0 0 0 0 0 0 0 1 1 3 7 11 15 16 15 14 14 14 12 11 10 9 7 6 5 4 3 3 3 3 3 3 2 1 0 0 0 0 0 0 0 0 0 0 0 0 0
0 0 0 0 0 0 0 1 1 1 1 2 8 13 15 15 14 14 14 14 14 12 10 9 6 4 4 4 3 3 3 3 2 1 0 0 0 0 0 0 0 0 0 0 0 0 0 0 0

GEFSSGP_con_prob3kmehi_186.txt.gz
EHI
0 0 0 0 0 0 0 0 0 0 1 2 4 7 6 3 1 0 1 2 8 15 12 13 23 29 31 31 29 26 23 21 19 19 20 20 17 12 9 7 4 2 2 2 2 2 1 0 0
0 0 0 0 0 0 0 0 0 0 1 4 7 8 7 4 2 1 1 3 10 15 12 14 24 30 30 29 25 21 20 18 17 16 16 17 15 10 7 5 3 1 1 1 1 1 0 0 0
0 0 0 0 0 0 0 0 0 1 4 7 9 9 7 5 2 1 2 6 12 14 10 14 27 31 29 26 21 18 17 16 13 13 14 15 13 10 6 4 1 0 0 0 0 0 0 0 0
0 0 0 0 0 0 0 0 1 3 6 9 9 9 7 4 2 1 4 8 12 12 10 17 30 34 30 27 22 19 17 15 13 13 15 15 13 10 7 4 1 0 0 0 0 0 0 0 0
0 0 0 0 0 0 0 0 1 3 6 9 10 9 7 4 3 4 8 9 12 14 15 21 32 35 33 30 25 22 20 17 15 15 15 14 12 9 7 4 1 0 0 0 0 0 0 0 0
0 0 0 0 0 0 0 1 2 3 5 8 9 9 9 6 5 9 13 13 14 18 20 24 29 32 32 31 27 24 24 22 20 17 15 13 11 8 6 3 1 0 1 1 0 0 0 0 0
0 0 0 0 0 0 0 1 2 4 6 6 6 8 9 8 10 16 20 18 18 21 23 23 24 25 28 29 28 27 27 26 23 19 14 11 10 8 6 3 1 0 1 1 0 0 0 0 0
0 0 0 0 0 0 0 1 3 5 5 5 5 4 7 12 19 24 25 22 21 21 23 23 21 21 22 24 26 27 26 24 20 16 12 8 7 7 5 3 1 0 1 1 0 0 0 0 0
0 0 0 0 0 0 1 2 4 6 6 5 5 6 12 24 31 31 28 24 20 19 19 21 21 19 18 19 21 20 19 16 12 10 9 6 5 4 3 2 2 1 0 0 0 0 0 0 0
0 0 0 0 0 0 1 3 5 6 5 5 9 16 24 33 36 33 27 21 18 15 16 18 19 17 15 15 15 13 11 9 7 6 6 5 3 1 1 1 1 1 0 0 0 0 0 0 0
0 0 0 0 0 0 1 4 5 3 2 4 12 24 31 33 34 30 21 16 14 14 13 14 14 12 10 9 9 9 9 7 6 4 3 3 1 0 0 0 0 0 0 0 0 0 0 0 1
0 0 1 1 0 1 2 5 5 3 3 8 18 27 30 29 28 24 16 12 12 12 12 10 9 8 6 5 5 6 7 6 5 3 2 1 0 0 0 0 0 0 0 0 0 0 0 0 1
0 0 1 1 1 1 3 5 5 5 8 15 24 29 29 27 25 19 14 12 11 10 10 9 7 6 5 4 4 5 5 4 3 1 1 0 0 0 0 0 0 0 0 0 0 0 0 0 1
0 0 1 1 1 2 4 4 4 7 14 21 26 29 30 27 24 19 14 12 11 10 9 9 7 6 6 6 5 4 3 2 1 0 0 0 0 0 0 0 0 0 0 0 0 0 0 0 1
0 0 0 0 0 1 3 3 3 9 19 26 28 31 31 27 23 20 15 11 10 9 8 7 8 7 6 5 4 2 1 1 1 0 0 0 0 0 0 0 0 0 0 0 0 0 0 0 1
0 0 0 0 0 0 1 1 2 9 21 29 31 32 31 27 22 19 16 12 10 9 9 8 8 7 5 4 2 0 0 1 1 1 1 2 2 1 0 0 0 0 0 0 0 0 0 0 0
0 0 0 0 0 0 0 0 2 9 18 26 29 29 28 25 21 19 18 15 12 12 12 10 8 7 6 3 1 0 0 1 1 1 2 3 2 1 0 0 0 0 0 0 0 0 0 0 0
0 0 0 0 0 1 1 1 3 8 13 19 24 26 26 23 19 19 20 18 17 17 15 11 9 8 6 3 1 0 0 0 0 0 1 2 2 1 1 0 0 0 0 0 0 0 0 0 0
0 0 0 1 1 1 2 2 4 6 8 12 17 22 24 22 19 19 21 22 21 19 16 12 9 7 5 2 0 0 0 0 0 0 0 0 0 0 0 0 0 0 0 0 0 0 0 0 0
0 0 0 1 2 2 3 3 3 3 4 7 11 15 19 20 19 19 23 25 25 20 15 11 8 4 2 1 0 0 0 0 0 0 0 0 0 0 0 0 0 0 0 0 0 0 0 0 0
0 0 0 1 1 1 2 2 1 1 1 3 5 8 12 16 17 20 24 27 26 21 15 11 6 2 1 0 0 0 0 0 0 0 0 0 0 0 0 0 0 0 0 0 0 0 0 0 0
0 0 0 0 0 0 1 1 0 0 0 1 2 4 7 9 12 17 22 26 26 21 16 10 5 1 0 0 0 0 0 0 0 0 0 0 0 0 0 0 0 0 0 0 0 0 0 0 0
0 0 0 0 0 0 0 0 0 0 1 1 1 2 3 5 7 13 19 22 21 18 14 9 6 3 1 1 1 1 0 0 0 0 0 0 0 0 0 0 0 0 0 0 0 0 0 0 0
0 0 0 0 0 0 0 0 0 0 1 2 2 2 3 4 6 11 15 15 14 11 10 8 7 6 5 3 3 2 1 1 1 0 0 0 0 0 0 0 0 0 0 0 0 0 0 0 0
0 0 0 0 0 0 0 0 0 0 0 1 1 2 3 5 8 12 13 10 7 6 6 6 8 8 6 5 4 3 3 2 2 1 0 0 0 0 0 0 0 0 0 0 0 0 0 0 0
0 0 0 0 0 0 0 0 0 0 0 1 2 3 5 6 7 9 10 7 4 4 4 5 7 7 6 4 3 3 3 3 3 2 1 0 0 0 0 0 0 0 0 0 0 0 0 0 0
0 0 0 0 0 0 0 0 0 0 0 2 3 4 5 6 6 6 6 5 3 3 4 5 6 7 5 4 3 3 3 3 3 3 2 0 0 0 0 0 0 0 0 0 0 0 0 0 0
0 0 0 0 0 0 0 0 0 0 0 1 2 4 5 5 5 4 4 3 3 3 4 5 6 6 5 3 3 3 3 3 2 2 1 0 0 0 0 0 0 0 0 0 0 0 0 0 0
0 0 0 0 0 0 0 0 0 0 0 0 1 3 5 4 4 3 2 2 3 4 5 5 4 4 3 2 1 2 2 1 1 1 0 0 0 0 0 0 0 0 0 0 0 0 0 0 0
0 0 0 0 0 0 0 0 0 0 0 0 1 3 4 4 3 3 2 1 2 4 5 5 4 3 2 1 0 1 1 0 0 0 0 0 0 0 0 0 0 0 0 0 0 0 0 0 0

GEFSSGP_con_prob3kmehi_192.txt.gz
EHI
0 0 0 0 0 0 0 0 0 0 0 0 0 0 0 0 0 0 1 2 5 10 15 16 16 14 13 19 30 39 43 46 48 47 41 31 23 15 9 4 1 0 0 0 0 0 0 0 0
0 0 0 0 0 0 0 0 0 0 0 0 0 1 1 1 1 1 3 6 8 11 16 18 19 16 14 18 28 35 40 42 44 41 34 26 18 12 7 4 2 1 0 0 0 0 0 0 0
0 0 0 0 0 0 0 0 0 0 0 0 1 2 3 3 3 3 7 10 11 12 16 21 21 18 16 17 22 29 33 35 36 33 27 20 15 9 6 4 3 2 1 0 0 0 0 0 0
0 0 0 0 0 0 0 1 0 0 0 1 2 3 5 6 6 5 7 11 13 13 15 21 23 19 17 17 19 23 27 29 29 26 21 17 14 10 5 3 3 2 1 0 0 0 0 0 0
0 0 0 0 0 0 0 1 0 0 0 1 2 4 6 9 9 7 8 10 13 12 14 21 23 19 18 17 17 19 22 24 24 21 17 15 13 9 4 3 3 2 1 0 0 0 0 0 0
0 0 0 0 0 0 0 1 0 0 1 1 3 5 8 10 11 10 10 11 12 12 14 20 21 18 17 18 18 17 18 19 20 18 15 13 11 7 3 2 2 1 0 0 0 0 0 0 0
0 0 0 0 0 0 0 0 0 0 1 1 3 5 9 13 15 15 13 13 13 12 13 15 16 17 18 19 21 21 19 17 15 12 10 8 7 4 2 1 0 0 0 0 0 0 0 0 0
0 0 0 0 0 0 0 0 0 0 2 3 4 6 13 21 23 22 19 17 16 14 13 13 15 17 18 19 21 23 21 16 11 7 5 3 2 1 1 0 0 0 0 0 0 0 0 0 0
0 0 0 0 0 0 0 0 0 1 3 4 6 10 20 29 31 28 24 21 20 19 17 18 19 19 17 17 19 20 18 14 9 6 4 2 0 0 0 1 1 1 0 0 0 0 0 0 0
1 0 0 0 0 0 0 0 1 1 2 4 8 16 27 33 32 29 26 23 24 25 24 24 24 22 19 19 20 20 16 12 10 9 8 8 6 3 2 3 3 2 1 0 0 0 0 0 0
1 0 0 0 0 0 0 1 2 2 3 6 12 20 28 30 29 28 25 23 25 26 26 26 27 26 24 23 22 21 18 15 13 12 14 16 15 11 7 6 6 5 4 2 2 2 1 1 0
1 0 0 0 0 0 0 1 3 4 5 8 13 18 23 24 24 25 24 22 23 25 26 26 26 28 29 27 24 22 20 18 16 15 16 19 20 16 12 10 9 7 7 6 5 5 4 3 2
0 0 0 0 0 0 1 2 4 5 5 7 11 15 17 18 19 20 21 22 25 26 27 27 26 30 33 33 27 24 22 20 17 16 15 16 17 16 14 13 10 9 9 8 8 7 6 5 5
0 0 0 0 0 0 1 2 3 4 5 5 8 13 14 15 16 16 18 24 29 30 29 28 28 31 36 35 30 27 25 22 18 16 16 15 14 14 14 14 13 12 11 9 7 6 6 5 3
0 0 0 0 0 1 1 2 2 2 3 4 6 11 14 16 16 16 19 26 31 33 32 29 27 29 33 32 27 24 22 19 17 18 17 14 13 12 12 14 13 12 10 7 5 5 5 4 2
0 0 0 0 1 1 1 1 1 1 1 3 5 9 15 18 17 16 20 26 30 32 33 31 27 27 29 26 21 18 16 14 15 17 15 12 10 9 11 12 12 10 7 5 3 3 4 4 3
0 0 0 0 1 1 1 1 1 1 1 3 6 11 16 18 16 16 21 26 29 30 32 32 29 26 25 22 19 17 16 14 14 15 13 9 6 5 7 10 10 9 7 5 4 4 4 4 4
0 0 0 0 0 0 1 2 2 2 2 4 7 10 14 16 15 17 21 25 29 31 31 31 29 27 24 22 21 20 17 15 14 13 10 5 2 1 3 7 10 10 9 6 5 6 5 4 3
0 0 0 0 0 0 0 2 3 3 3 5 6 8 11 14 15 19 21 23 27 31 33 33 31 29 28 26 23 21 17 14 12 10 7 3 1 1 3 6 10 12 10 5 4 6 5 3 2
0 0 0 0 0 0 1 2 3 3 3 4 5 6 9 13 17 21 24 24 26 31 34 35 34 31 30 28 25 22 17 13 10 8 6 4 2 2 3 5 8 9 8 4 3 4 3 1 1
0 0 0 0 0 0 1 2 2 2 3 4 5 7 10 14 20 23 25 26 28 31 33 34 34 32 31 29 25 21 16 12 10 8 6 4 3 3 4 4 5 5 5 4 4 4 3 2 2
0 0 0 0 0 0 0 1 1 2 3 4 6 7 10 16 20 22 24 27 29 31 32 32 32 33 32 29 25 19 14 11 10 10 7 4 3 4 4 4 4 4 5 6 6 6 6 5 5
0 0 0 0 0 0 0 0 0 1 3 5 6 6 9 15 18 19 23 27 28 30 30 29 29 30 29 27 24 20 13 10 10 10 7 5 4 4 4 5 5 5 7 8 8 7 7 8 8
0 0 0 0 0 0 0 0 0 2 3 4 5 6 9 13 15 18 23 27 29 30 29 26 25 24 22 21 21 19 13 9 9 9 8 6 5 5 4 4 5 6 8 9 8 7 7 8 9
0 0 0 0 0 0 0 0 0 1 2 4 6 8 10 11 12 16 21 26 29 29 26 22 19 16 14 14 16 15 12 9 9 8 8 6 5 4 3 3 4 7 7 7 6 6 6 7 7
0 0 0 0 0 0 0 0 0 1 3 4 8 10 11 10 10 12 17 23 25 23 20 16 13 12 11 11 13 12 10 9 8 8 7 4 2 2 2 2 4 6 6 5 4 4 4 4 4
0 0 0 0 0 0 0 0 0 1 3 5 8 12 12 11 10 11 15 19 21 18 13 9 8 9 9 10 10 10 9 8 7 7 7 4 1 1 1 3 4 5 5 5 4 3 3 3 3
0 0 0 0 0 0 0 0 0 1 2 4 7 11 11 11 12 12 13 16 18 16 11 7 7 7 8 9 10 10 9 8 7 7 7 5 2 1 2 4 4 3 3 3 3 3 3 3 2
0 0 0 0 0 0 0 0 0 2 3 3 5 7 8 8 9 10 10 11 12 10 8 7 6 6 7 8 10 11 10 9 8 6 6 5 3 1 2 3 3 1 1 1 2 2 2 1 1
0 0 0 0 0 0 0 0 1 4 5 4 3 4 4 5 7 7 8 8 7 5 4 4 4 5 7 8 9 11 11 9 7 5 4 4 2 1 1 1 1 0 0 0 1 1 1 0 0

GEFSSGP_con_prob3kmehi_198.txt.gz
EHI
0 0 0 0 0 0 0 0 0 0 0 0 2 4 8 10 7 5 7 23 42 44 37 37 35 27 19 12 5 1 0 0 1 2 2 1 0 0 0 0 0 0 0 0 0 0 0 0 0
0 0 0 0 0 0 0 0 0 1 1 2 4 6 7 9 8 6 12 27 41 44 39 38 36 29 21 13 6 2 0 0 0 1 1 0 0 0 0 0 0 0 0 0 0 0 0 0 0
0 0 0 0 0 0 0 0 0 2 3 3 6 8 8 9 9 9 17 30 41 45 44 41 38 32 23 15 9 4 1 1 0 0 0 0 0 0 0 0 0 0 0 0 0 0 0 0 0
0 0 0 0 0 0 1 1 0 1 2 4 7 10 10 11 12 14 20 29 38 44 44 43 41 35 25 18 13 8 5 3 1 0 0 0 1 1 1 1 1 2 1 1 0 0 0 0 0
0 0 0 0 0 0 1 2 1 0 1 4 9 14 15 15 17 17 20 26 34 40 43 43 42 39 31 22 17 14 10 6 4 2 2 3 4 4 4 3 3 3 3 2 1 0 0 0 0
0 0 0 0 0 0 1 2 2 2 3 6 11 15 18 20 19 17 18 22 29 40 44 43 41 40 35 28 22 18 14 11 8 6 6 7 9 9 7 4 3 3 3 3 2 1 1 1 0
0 0 0 0 0 0 1 2 3 4 6 8 9 13 19 23 21 17 18 20 28 39 44 41 38 37 35 32 28 25 21 17 14 11 10 11 11 9 7 5 4 4 4 3 3 3 2 2 1
0 0 0 0 0 0 0 2 4 6 8 9 9 14 21 25 22 20 20 23 30 38 40 38 37 35 32 31 32 31 27 24 21 17 15 13 11 9 6 6 7 7 5 4 3 3 3 3 3
0 0 0 0 0 0 1 3 5 7 9 11 14 20 27 28 23 21 25 30 36 39 37 37 38 35 30 29 33 33 30 27 24 21 19 16 13 10 7 8 12 12 9 7 6 5 4 3 3
0 0 0 0 1 2 2 4 6 8 10 14 19 26 29 28 25 24 29 35 39 40 37 37 38 35 30 30 35 34 30 30 26 22 22 20 16 12 9 12 17 16 14 11 9 7 6 5 5
0 0 0 0 1 2 3 4 6 8 12 17 22 26 26 27 28 30 34 38 39 40 38 39 40 38 35 38 41 37 35 35 30 26 26 23 18 15 15 18 21 20 18 15 12 10 9 8 9
0 0 0 0 1 2 3 5 6 9 15 20 21 20 21 24 26 30 35 37 36 39 40 40 43 46 47 48 47 43 40 38 34 32 31 25 21 19 21 24 23 22 21 19 15 14 12 11 12
0 0 0 1 1 1 3 4 5 9 14 18 17 14 15 19 21 25 33 37 39 42 44 43 47 54 57 54 48 45 44 40 37 38 35 29 25 24 26 26 24 23 23 22 20 16 13 13 13
0 0 1 2 2 1 1 1 3 7 11 12 11 11 13 17 21 26 35 43 48 52 53 52 53 59 61 55 46 42 41 39 38 39 37 33 31 30 29 27 25 23 22 23 21 16 13 13 12
0 0 1 2 2 1 0 0 3 6 8 7 8 11 15 19 25 31 41 52 58 61 63 59 57 59 60 54 45 38 35 34 36 37 37 35 33 33 31 27 26 24 23 23 21 17 14 12 10
0 0 0 1 1 0 0 2 5 8 8 7 7 11 17 22 26 32 42 55 63 66 66 61 54 54 57 56 49 40 35 35 36 36 37 36 31 28 27 25 24 24 22 21 18 15 12 10 9
0 0 0 0 0 0 1 4 8 10 9 8 9 12 17 22 26 30 39 51 60 64 64 59 53 52 55 56 52 45 41 40 39 36 36 35 29 23 20 20 20 19 18 16 13 10 9 9 8
0 0 0 0 0 1 2 6 10 10 9 9 11 14 17 22 27 31 37 44 51 57 58 56 54 53 53 53 51 49 47 44 39 35 34 32 27 22 18 17 16 14 14 12 9 7 7 7 7
0 0 0 0 1 1 3 6 8 9 7 8 11 15 18 22 27 32 36 40 45 52 56 57 55 53 52 51 50 50 48 44 38 33 32 30 26 22 18 16 13 11 11 10 8 7 6 5 5
0 0 0 0 0 1 2 5 6 6 6 7 10 14 17 22 27 33 37 39 44 51 56 57 55 52 50 49 48 47 47 43 37 33 32 28 24 20 18 16 12 10 9 8 7 6 5 4 4
0 0 0 0 0 1 2 4 6 6 6 7 10 11 14 21 29 35 38 38 41 48 53 55 55 53 49 47 45 45 43 39 34 33 30 26 21 18 17 14 10 8 8 7 6 6 5 4 4
0 0 0 0 0 0 1 2 6 9 8 7 8 9 13 22 30 35 37 38 39 42 47 51 54 53 49 46 44 42 38 33 30 29 27 23 19 16 15 13 10 9 8 7 6 6 6 6 6
0 0 0 0 0 0 0 1 6 10 11 11 10 11 17 25 30 32 36 39 39 38 41 46 49 50 47 44 41 38 33 29 27 27 24 20 18 15 14 14 13 10 9 8 7 7 7 6 6
0 0 0 0 0 0 0 1 5 10 14 16 15 16 21 26 28 30 34 40 41 39 38 40 43 44 42 38 35 32 28 25 26 25 21 18 17 16 14 14 14 12 10 9 8 7 7 6 6
0 0 0 0 0 0 0 2 6 11 16 18 18 18 21 23 24 26 32 38 41 41 41 40 38 38 36 33 30 27 24 23 23 23 19 16 15 14 12 11 12 11 10 8 7 7 6 6 6
0 0 0 0 0 0 0 3 9 15 20 23 22 21 21 19 18 21 28 33 37 40 42 39 34 32 31 28 26 25 24 22 20 19 16 13 12 11 9 9 9 9 8 5 5 5 4 4 3
0 0 0 0 0 0 0 3 11 17 21 24 24 22 21 18 16 17 22 27 32 35 36 32 28 27 27 24 22 20 20 20 19 17 13 11 9 8 8 8 7 6 5 3 2 2 2 1 1
0 0 0 0 0 0 0 2 9 16 17 17 18 17 16 15 13 14 18 23 27 28 27 25 21 20 21 19 16 15 16 17 18 16 13 11 9 7 7 8 6 4 4 3 1 0 1 0 0
0 0 0 0 0 0 0 1 7 12 12 9 9 9 10 10 10 11 15 19 21 20 20 19 15 13 14 14 13 13 14 15 16 15 14 12 10 8 8 6 5 4 4 3 1 0 0 0 0
0 0 0 0 0 0 0 1 6 10 9 6 4 5 7 7 7 9 12 16 17 15 16 15 11 9 9 10 12 14 14 14 15 14 13 13 11 10 8 5 4 5 5 3 2 1 0 0 0

GEFSSGP_con_prob3kmehi_204.txt.gz
EHI
0 0 0 0 0 0 0 0 0 0 3 7 8 7 7 6 5 4 6 12 23 32 35 40 52 55 47 38 29 21 17 14 10 7 6 6 5 4 3 2 2 4 4 3 2 2 1 0 0
0 0 0 0 0 0 0 0 0 1 3 6 7 9 10 9 9 8 9 16 26 32 33 38 50 54 48 39 30 22 16 13 9 7 5 5 4 4 3 3 4 4 3 2 1 1 0 0 0
0 0 0 0 0 0 0 0 0 2 4 5 7 9 10 10 12 13 16 23 29 32 32 38 48 51 47 40 32 24 17 13 11 8 6 6 5 5 5 5 5 4 3 2 1 0 0 0 0
0 0 0 0 0 0 0 0 1 2 4 6 8 10 10 12 17 23 28 31 32 33 32 38 46 49 46 40 33 26 20 17 14 10 8 8 8 9 8 8 7 5 3 2 1 0 0 0 0
0 0 0 0 0 0 0 0 1 3 6 8 10 13 15 19 28 35 37 38 37 35 33 37 46 49 46 41 35 30 25 21 18 14 12 12 12 12 10 8 7 6 4 2 1 1 1 2 1
0 0 0 0 0 0 0 1 1 4 7 9 12 16 19 26 36 39 38 38 39 38 35 37 43 47 45 42 37 33 30 26 24 20 17 16 15 12 8 6 6 6 5 3 2 2 3 3 3
0 0 0 0 0 0 0 1 2 5 8 10 13 17 20 27 35 38 36 38 41 41 38 37 40 42 41 38 36 34 32 30 27 24 20 19 17 13 8 6 6 7 7 6 4 4 3 3 3
0 0 0 0 0 0 0 1 3 7 10 11 13 15 18 25 33 34 34 37 42 42 39 37 37 36 33 32 32 32 31 29 27 24 22 19 15 12 10 10 9 9 9 9 8 6 4 4 3
0 0 0 0 0 0 0 1 4 9 13 15 14 16 23 31 35 33 32 37 41 41 38 36 36 35 32 28 27 29 27 25 23 21 19 16 12 9 9 11 11 11 11 11 10 8 6 5 4
0 0 0 0 0 0 1 3 5 10 14 17 19 23 33 40 38 33 31 35 38 37 35 34 36 36 33 27 24 23 21 19 17 15 14 13 10 8 8 9 9 9 10 10 9 9 8 8 8
0 0 0 0 0 1 2 4 7 10 13 17 22 29 39 43 40 33 30 32 34 34 33 34 35 34 31 25 22 20 18 15 14 13 12 11 9 8 8 7 6 6 8 9 10 11 11 11 12
0 0 1 0 0 2 5 7 9 10 12 18 24 30 39 43 39 33 29 30 33 34 34 33 32 30 26 23 22 21 19 16 15 13 12 12 12 11 10 8 7 6 7 10 12 12 12 11 11
0 0 0 0 0 3 7 9 9 9 13 20 27 32 37 39 36 30 28 30 34 35 35 33 30 27 24 20 20 21 20 17 15 14 14 15 15 15 14 12 11 9 8 9 10 10 8 7 6
0 0 0 0 1 4 7 8 8 8 13 21 27 29 30 31 30 29 29 32 36 36 34 32 28 26 23 20 19 20 19 16 14 14 15 16 16 16 16 15 13 11 8 6 5 4 3 2 2
0 0 0 0 1 3 5 6 5 5 10 16 20 22 22 23 25 28 31 34 36 35 33 31 28 25 23 22 21 22 21 18 16 16 16 15 14 14 14 14 13 10 6 3 1 0 0 0 0
0 0 0 0 1 2 3 3 3 4 8 12 14 16 18 21 23 28 30 31 33 34 33 33 31 27 25 24 23 23 23 21 19 18 15 13 12 12 12 12 11 8 3 1 0 0 0 0 0
0 0 0 0 0 1 2 3 5 6 8 10 11 13 17 20 23 25 26 27 31 35 36 36 34 32 30 29 27 24 22 22 21 18 15 12 12 12 12 11 9 5 1 0 0 0 0 0 0
0 0 0 0 0 1 5 7 7 7 7 8 8 10 15 20 22 21 22 24 29 35 37 38 35 33 32 32 30 26 23 22 22 20 16 13 12 12 11 9 5 3 1 1 0 0 0 0 0
0 0 0 0 0 3 7 8 6 5 4 4 4 7 12 17 20 19 20 23 28 32 34 36 34 32 32 31 29 26 23 22 21 21 18 14 11 10 8 5 2 1 1 1 0 0 0 0 0
0 0 0 0 1 3 6 6 5 3 2 1 2 5 11 15 18 19 20 23 27 29 31 31 31 31 30 28 27 25 21 19 19 18 16 14 12 9 6 4 1 0 0 0 0 0 0 0 0
0 0 0 0 1 2 3 3 3 3 2 1 2 7 13 15 16 17 19 22 25 28 28 28 28 27 26 25 25 23 18 15 15 13 11 10 10 8 6 4 1 0 0 0 0 0 0 0 0
0 0 0 0 0 1 1 1 2 3 3 3 5 9 14 15 14 15 17 19 23 24 24 25 25 23 22 21 21 19 16 12 10 8 7 7 7 6 5 3 1 0 0 0 0 0 0 0 0
0 0 0 0 0 0 0 0 1 2 3 5 7 9 12 13 12 13 15 17 19 19 20 22 24 22 19 18 16 13 10 8 6 4 4 5 5 4 3 2 1 0 0 0 0 0 0 0 0
0 0 0 0 0 0 0 0 2 2 3 6 9 10 11 11 11 12 14 15 15 15 17 20 22 20 17 15 12 8 5 3 3 2 3 4 3 3 3 2 1 0 0 0 0 0 0 0 0
0 0 0 0 0 0 0 0 1 2 3 6 8 10 11 11 10 11 13 14 14 14 16 18 17 15 13 10 7 4 1 1 1 1 2 3 3 3 2 1 0 0 0 0 0 0 0 0 0
0 0 0 0 0 0 0 0 1 2 3 5 6 8 10 10 8 8 10 12 13 13 14 15 13 11 9 6 5 2 0 0 0 0 1 1 2 3 3 1 0 0 0 0 0 0 0 0 0
0 0 0 0 0 0 0 0 2 3 3 3 4 5 6 7 5 4 5 8 11 12 12 11 9 6 4 4 5 3 1 0 0 0 0 0 1 2 3 2 1 0 0 0 0 0 0 0 0
0 0 0 0 0 0 0 0 1 2 2 1 2 3 3 3 2 2 2 3 5 8 8 6 3 2 2 3 3 2 0 0 0 0 0 0 0 1 2 2 1 0 0 0 0 0 0 0 0
0 0 0 0 0 0 0 0 0 0 0 0 1 2 1 1 1 1 1 1 2 4 5 3 1 0 2 2 1 0 0 0 0 0 0 0 0 0 1 1 0 0 0 0 0 0 0 0 0
0 0 0 0 0 0 0 0 0 0 0 0 0 1 0 0 0 0 1 0 1 2 3 2 1 0 1 1 0 0 0 0 0 0 0 0 0 0 0 0 0 0 0 0 0 0 0 0 0

GEFSSGP_con_prob3kmehi_210.txt.gz
EHI
0 0 0 0 0 0 0 0 0 0 0 1 2 3 3 1 0 0 0 2 10 20 27 34 43 48 47 46 48 51 51 49 47 44 42 40 38 37 35 32 27 21 17 15 14 13 13 12 11
0 0 0 0 0 0 0 0 0 0 1 2 3 3 3 2 1 0 0 4 13 25 31 36 44 51 51 49 46 46 46 45 42 38 35 33 31 31 31 28 24 21 18 17 15 13 12 11 11
0 0 0 0 0 0 0 0 0 0 2 3 3 3 3 3 2 0 2 8 19 30 35 39 47 54 55 52 46 42 40 38 35 31 28 26 25 25 26 25 23 21 19 17 14 11 9 9 9
0 0 0 0 0 0 0 0 0 0 1 2 3 4 4 4 3 3 7 16 25 31 34 39 48 53 53 52 48 41 37 34 31 29 27 24 24 24 24 23 21 19 17 14 11 9 6 5 6
0 0 0 0 0 0 0 0 0 0 1 2 4 5 5 4 5 9 15 20 25 28 30 36 46 51 49 48 46 41 36 33 33 32 29 25 24 24 23 21 18 15 12 11 10 8 5 4 4
0 0 0 0 0 0 0 0 0 1 2 3 5 7 6 6 11 16 18 18 21 25 27 33 42 47 46 45 44 40 36 33 33 32 29 25 24 22 21 19 16 13 11 9 9 8 6 4 3
0 0 0 0 0 0 0 0 0 1 3 4 6 8 8 11 17 21 20 16 18 22 26 30 37 42 42 42 43 41 36 32 30 29 27 25 22 18 17 16 14 13 10 8 7 7 6 4 2
0 0 0 0 0 0 0 0 0 2 4 6 7 7 9 16 24 29 25 19 18 20 23 27 33 37 38 40 41 41 36 30 27 27 26 23 18 14 13 13 12 11 10 9 7 6 4 3 2
0 0 0 0 0 0 0 0 0 3 7 10 8 7 12 23 33 35 30 24 22 22 23 28 32 35 36 36 37 37 33 28 25 23 21 18 13 11 11 10 10 9 10 10 8 5 4 3 2
0 0 0 0 0 0 0 0 0 2 7 11 11 11 18 28 35 34 30 27 26 27 28 30 32 34 34 33 32 30 27 24 21 18 15 13 10 8 9 8 8 10 11 10 8 6 6 5 4
0 0 0 0 0 0 0 0 0 2 5 9 13 18 24 28 30 28 26 25 26 29 31 30 31 33 34 32 30 26 21 18 16 15 13 11 9 8 8 7 8 9 10 10 9 9 9 9 9
0 0 0 0 0 0 0 0 2 4 5 7 12 20 26 27 26 25 24 24 24 27 29 29 29 32 33 31 28 24 18 15 14 14 13 12 11 9 8 7 7 8 9 9 9 10 9 9 10
0 0 0 0 0 1 1 1 2 4 5 6 11 18 23 24 24 23 22 22 23 24 26 27 27 29 29 27 24 20 16 15 15 15 14 12 10 9 6 5 5 6 8 8 9 9 8 8 8
0 0 0 0 1 2 2 1 1 2 3 5 9 13 17 19 19 18 17 18 21 22 23 25 25 24 23 22 20 16 14 14 15 16 14 11 9 7 5 3 4 5 7 8 8 7 6 5 5
0 0 0 0 0 1 2 1 0 2 3 4 6 9 11 12 13 14 14 15 18 21 22 24 24 21 18 17 17 16 14 14 15 15 14 10 8 7 5 3 3 5 6 7 7 5 3 2 2
0 0 0 0 0 0 1 0 0 2 4 4 4 6 6 5 6 9 11 12 14 17 20 22 21 18 15 14 15 15 15 15 15 15 13 11 9 8 7 4 4 5 6 6 5 3 1 0 0
0 0 0 0 0 0 0 0 0 1 3 3 3 4 2 1 2 5 8 9 10 12 16 19 20 17 15 13 13 14 15 15 14 13 12 11 10 9 8 6 4 5 4 4 3 1 0 0 0
0 0 0 0 0 0 0 0 0 1 1 1 1 2 1 0 2 5 8 9 10 11 13 16 17 15 13 13 13 13 13 12 11 9 9 9 9 10 9 7 6 4 3 3 1 0 0 0 0
0 0 0 0 0 0 1 1 1 0 0 0 1 1 1 2 4 8 9 10 11 12 12 14 14 12 11 12 13 11 9 7 6 5 5 5 6 8 9 8 6 4 3 2 1 0 0 0 0
0 0 0 0 0 0 1 1 1 0 0 1 2 2 3 5 7 9 10 10 10 10 11 12 11 10 10 11 12 10 6 4 3 2 2 3 3 5 7 7 5 3 3 2 1 0 0 0 0
0 0 0 0 0 0 0 0 0 0 0 2 2 2 3 6 8 8 8 9 8 8 8 9 9 10 10 10 10 9 6 3 2 2 1 1 1 2 3 4 3 2 3 2 1 0 0 0 0
0 0 0 0 0 0 0 0 0 0 0 1 2 3 3 5 7 6 6 6 7 7 7 6 7 9 11 10 10 9 6 4 3 2 0 0 0 0 1 1 1 1 1 1 1 0 0 0 0
0 0 0 0 0 0 0 0 0 0 0 1 2 2 2 4 6 6 5 5 7 7 5 5 6 9 10 10 9 8 7 5 3 1 0 0 0 0 0 0 0 0 0 0 0 0 0 0 0
0 0 0 0 0 0 0 0 0 0 0 0 1 1 1 3 5 7 7 8 7 6 4 3 5 7 9 10 9 8 6 4 3 1 0 0 0 0 0 0 0 0 0 0 0 0 0 0 0
0 0 0 0 0 0 0 0 0 0 0 0 0 0 1 2 4 7 9 9 8 7 4 3 4 6 8 9 8 7 6 4 2 1 0 0 0 0 0 0 0 0 0 0 0 0 0 0 0
0 0 0 0 0 0 0 0 0 0 0 0 0 0 1 1 2 3 5 6 7 7 6 4 4 5 7 6 6 5 4 2 1 0 0 0 0 0 0 0 0 0 0 0 0 0 0 0 0
0 0 0 0 0 0 0 0 0 0 0 0 0 0 0 0 0 0 1 2 3 5 4 3 2 3 3 3 2 3 2 1 0 0 0 0 0 0 0 0 0 0 0 0 0 0 0 0 0
0 0 0 0 0 0 0 0 0 0 0 0 0 0 0 1 0 0 0 0 1 1 1 1 1 1 1 1 0 1 1 0 0 0 0 0 0 0 0 0 0 0 0 0 0 0 0 0 0
0 0 0 0 0 0 0 0 0 0 0 0 0 0 0 0 0 0 0 0 0 0 0 0 0 0 0 0 0 0 0 0 0 0 0 0 0 0 0 0 0 0 0 0 0 0 0 0 0
0 0 0 0 0 0 0 0 0 0 0 0 0 0 0 0 0 0 0 0 0 0 0 0 0 0 0 0 0 0 0 0 0 0 0 0 0 0 0 0 0 0 0 0 0 0 0 0 0

GEFSSGP_con_prob3kmehi_216.txt.gz
EHI
0 0 0 0 0 0 0 0 0 0 0 0 0 0 0 1 1 0 1 2 9 22 35 40 40 39 38 39 42 47 53 54 50 48 46 43 42 39 33 26 22 18 17 15 12 10 7 4 3
0 0 0 0 0 0 0 0 0 0 0 0 0 0 1 2 2 1 2 6 12 24 34 39 40 39 37 38 41 46 52 54 51 48 46 42 40 36 30 24 20 18 17 15 13 11 7 4 3
0 0 0 0 0 0 0 0 0 0 0 0 0 1 2 3 3 4 7 11 17 24 33 40 41 38 36 37 39 42 46 49 48 46 42 38 35 31 26 21 17 16 16 15 14 11 7 4 3
0 0 0 0 0 0 0 0 0 0 0 0 0 1 2 4 5 8 12 15 18 23 31 40 42 37 35 36 36 36 38 40 40 38 35 32 29 26 23 19 16 15 15 15 14 11 7 5 4
0 0 0 0 0 0 0 0 0 0 0 0 0 1 3 5 9 14 16 17 17 20 28 38 40 36 32 32 32 32 33 35 35 32 28 25 24 22 21 19 17 15 14 14 13 11 8 6 5
0 0 0 0 0 0 0 0 0 0 1 0 0 1 4 8 13 15 16 17 17 20 27 34 36 32 29 28 29 30 31 32 32 30 25 22 21 21 20 19 16 13 12 12 11 11 10 8 7
0 0 0 0 0 0 0 0 0 0 0 0 0 1 5 11 14 13 13 15 18 20 24 28 29 28 27 27 29 29 30 29 28 27 24 21 19 18 17 15 12 10 9 9 10 11 11 10 8
0 0 0 0 0 0 0 0 0 0 0 0 0 2 6 13 16 15 15 18 21 21 20 22 23 23 23 25 28 29 29 27 25 23 21 19 15 13 12 11 11 10 8 8 9 10 10 10 9
0 0 0 0 0 0 0 0 0 0 1 0 0 3 9 15 18 18 19 22 25 23 20 19 21 21 20 21 26 28 26 24 21 20 20 19 15 12 9 10 13 13 9 8 8 9 8 8 9
0 0 0 0 0 0 0 0 0 0 0 0 2 5 11 16 16 16 18 24 28 26 21 20 21 21 20 21 25 26 24 21 20 19 20 20 17 13 10 10 14 13 10 7 7 7 7 8 8
0 0 0 0 0 0 0 0 1 1 1 1 3 7 11 14 13 11 13 20 26 25 21 21 22 22 22 23 25 25 24 23 21 20 19 19 18 15 12 12 13 12 9 7 6 7 7 9 10
0 0 0 0 0 1 1 1 2 2 2 3 5 6 7 10 11 10 10 13 19 22 21 21 23 23 23 24 25 25 25 25 24 23 21 20 18 15 15 16 15 14 12 10 8 8 8 9 10
0 0 0 0 0 1 2 2 2 1 1 3 5 6 5 7 11 12 10 11 15 17 19 21 22 24 24 24 24 24 24 24 25 25 24 22 19 17 18 21 20 18 16 13 10 9 9 9 10
0 0 0 0 0 1 1 1 1 0 1 3 5 6 7 9 14 16 14 13 13 14 16 18 20 23 25 24 22 21 21 21 22 23 24 23 21 20 23 25 23 21 19 16 12 10 9 9 10
0 0 0 0 0 0 0 0 0 0 1 3 6 7 9 13 17 19 18 17 15 15 16 18 19 22 25 25 23 20 19 18 17 19 22 22 21 22 25 25 24 22 21 20 17 12 10 10 11
0 0 0 0 0 0 0 0 0 0 1 3 6 8 11 15 18 19 19 19 19 20 21 21 22 23 25 25 24 20 18 16 15 15 18 19 20 21 23 24 24 23 23 23 21 17 13 12 12
0 0 0 0 0 0 0 0 0 1 2 3 5 6 9 12 15 16 17 18 21 23 23 22 23 23 23 23 22 19 17 17 17 16 16 18 19 21 22 24 25 24 22 22 21 20 17 14 12
0 0 0 0 0 0 0 0 0 1 1 3 5 5 6 9 11 13 14 16 18 20 20 18 19 22 22 21 20 18 18 19 19 18 17 18 19 20 20 22 24 23 21 21 20 19 18 15 13
0 0 0 0 0 0 0 1 2 2 1 1 4 5 6 8 10 12 14 16 17 18 17 16 16 20 21 20 20 20 19 18 17 17 17 18 17 17 17 19 21 22 22 21 18 16 16 14 13
0 0 0 0 0 0 0 2 3 3 1 1 2 4 6 7 10 12 13 15 17 18 17 15 15 18 19 18 19 19 16 14 13 13 15 14 13 13 14 15 18 20 20 18 15 13 12 10 10
0 0 0 0 0 0 0 1 2 3 3 2 2 3 5 7 9 11 12 14 15 15 14 13 14 16 16 16 17 15 12 10 8 9 10 11 11 11 11 12 14 15 13 11 11 10 8 6 5
0 0 0 0 0 0 0 0 2 3 3 3 3 2 4 6 8 10 11 12 12 11 11 12 13 14 15 16 17 15 13 10 8 7 9 10 9 8 8 9 10 10 7 6 7 7 6 4 3
0 0 0 0 0 0 0 0 1 2 2 3 3 2 3 5 8 10 12 12 11 9 10 12 12 12 14 15 15 15 13 11 9 8 10 10 9 7 6 7 7 5 5 5 6 6 6 5 4
0 0 0 0 0 0 0 0 1 1 2 2 3 3 3 4 8 10 13 14 12 11 11 11 10 11 13 14 13 13 12 10 9 9 10 10 8 7 6 5 4 4 4 5 5 5 5 4 4
0 0 0 0 0 0 0 0 0 1 1 1 2 4 4 4 6 10 14 15 14 11 10 8 7 7 10 12 11 10 9 9 9 10 9 8 7 6 5 4 4 4 4 4 4 5 4 3 3
0 0 0 0 0 0 0 0 0 0 1 2 3 3 4 3 4 8 12 13 11 8 5 4 3 3 6 9 9 9 8 9 9 9 8 6 5 3 2 2 3 4 3 3 4 4 3 1 1
0 0 0 0 0 0 0 0 0 1 2 3 3 2 2 2 3 6 9 9 7 4 2 1 2 3 4 5 6 7 8 9 8 7 5 5 4 2 1 1 2 2 3 3 3 2 1 0 0
0 0 0 0 0 0 0 0 1 2 2 3 2 2 1 1 2 5 6 6 5 3 2 3 4 3 3 3 4 5 7 7 6 4 4 4 3 3 1 0 1 1 1 2 2 1 0 0 0
0 0 0 0 0 0 0 0 1 1 1 1 2 2 1 0 2 4 4 3 3 3 2 3 3 2 2 3 4 4 3 3 3 3 4 3 4 4 2 0 0 0 0 1 1 0 0 0 0
0 0 0 0 0 0 0 0 0 1 0 0 1 2 1 0 1 3 3 2 2 3 3 2 1 1 1 3 4 3 2 1 1 3 4 4 4 3 2 0 0 0 0 0 0 0 0 0 0

GEFSSGP_con_prob3kmehi_222.txt.gz
EHI
0 0 0 0 0 0 0 0 0 0 0 0 1 2 6 9 10 10 12 24 35 38 36 38 43 40 29 19 13 10 8 9 9 9 9 8 7 6 6 6 5 6 5 4 5 5 2 1 0
0 0 0 0 0 0 0 0 0 0 0 0 2 5 7 8 9 11 18 28 36 38 37 40 45 43 34 24 16 12 11 11 10 9 8 8 8 7 6 6 6 5 4 4 6 5 3 2 1
0 0 0 0 0 0 0 0 0 1 1 1 4 9 11 9 9 14 24 31 36 39 43 46 48 46 39 30 21 16 15 14 12 10 10 10 9 7 6 6 6 5 4 4 6 6 4 3 2
0 0 0 0 0 0 0 1 1 2 2 1 5 12 15 12 12 18 25 29 33 40 45 48 49 46 40 34 27 21 18 16 14 12 12 12 10 8 7 6 7 6 5 5 6 6 5 3 2
0 0 0 0 0 0 0 1 2 2 2 1 5 12 16 14 14 19 22 23 27 36 42 45 48 46 39 34 29 24 21 18 15 13 13 13 12 10 9 8 8 7 7 7 7 6 6 4 3
0 0 0 0 0 0 0 1 1 1 1 1 5 12 15 13 11 14 16 17 23 34 40 43 45 42 37 32 28 25 23 21 17 16 16 16 16 14 12 9 8 9 9 8 6 5 5 5 5
0 0 0 0 0 0 1 2 1 1 1 1 4 10 14 12 7 8 12 17 25 34 38 37 36 35 32 29 26 24 23 22 19 19 19 19 19 16 13 10 9 9 8 6 5 5 5 5 5
0 0 0 0 0 0 1 3 3 3 3 3 4 8 13 12 7 7 12 20 28 32 31 28 27 27 24 24 24 24 24 22 20 20 20 20 17 15 13 13 14 13 10 8 8 8 7 6 5
0 0 0 0 0 0 1 2 3 3 4 6 7 10 14 14 12 12 17 24 29 30 25 23 25 23 19 20 24 25 24 23 22 20 20 20 17 14 14 18 23 23 19 16 15 14 12 9 7
0 0 0 0 0 0 0 1 1 2 4 7 11 15 17 15 15 17 21 25 29 28 24 23 25 22 18 22 29 28 26 26 25 23 23 23 19 16 17 23 30 30 25 23 22 20 17 14 12
0 0 0 0 0 0 0 1 2 3 6 9 14 18 19 15 13 15 20 25 28 27 25 24 25 24 23 28 33 30 29 32 29 27 28 27 23 21 22 26 31 31 28 25 25 25 23 20 18
0 0 0 0 0 0 0 2 4 7 9 11 15 18 18 15 12 12 18 26 30 28 26 27 28 29 32 35 34 31 31 32 31 31 32 29 26 26 27 28 31 32 30 29 29 29 28 24 21
0 0 0 0 0 0 0 1 5 8 9 9 12 15 16 14 12 14 21 28 32 31 30 32 33 36 40 41 37 32 30 30 31 33 32 29 28 30 29 30 31 31 30 31 31 30 28 24 21
0 0 0 0 1 0 0 0 2 4 5 5 8 11 12 12 13 17 24 29 32 33 34 37 39 41 44 42 38 33 29 28 30 32 32 30 30 31 31 32 31 29 28 28 29 28 25 22 20
0 0 0 0 0 0 0 0 0 1 1 2 4 8 10 12 15 19 24 27 29 32 35 37 37 39 41 41 36 31 27 25 27 31 32 31 31 32 33 32 29 26 25 25 25 22 19 18 18
0 0 0 0 0 0 0 0 0 0 1 1 2 6 10 15 19 21 22 24 26 30 34 34 32 34 36 38 36 29 23 22 24 29 32 31 30 31 31 30 26 23 22 23 21 17 14 13 12
0 0 0 0 0 0 0 0 0 0 1 1 2 6 12 19 21 20 21 23 26 31 33 31 29 30 31 34 37 32 25 21 21 24 29 30 29 29 28 27 24 21 20 20 17 14 12 10 9
0 0 0 0 0 0 1 1 0 1 1 2 4 8 14 20 23 21 20 24 28 31 32 31 31 31 30 32 35 34 30 25 21 22 26 28 27 26 26 25 23 21 18 17 17 14 11 10 11
0 0 0 0 1 1 2 2 2 2 4 5 6 9 14 19 23 23 22 24 28 30 30 31 33 34 32 30 30 29 29 27 23 23 25 24 23 23 23 23 23 21 18 16 15 12 9 9 10
0 0 0 1 2 2 3 3 3 5 7 7 6 9 13 19 24 26 25 25 25 26 28 30 33 35 33 28 23 22 23 24 23 24 23 20 19 19 19 21 21 19 17 15 13 10 7 5 5
0 0 0 1 1 2 2 3 4 6 9 8 8 10 15 21 26 29 28 25 24 25 24 27 31 33 30 24 19 17 18 20 21 21 20 17 15 14 15 16 17 15 15 14 12 10 7 4 2
0 0 0 0 0 0 1 2 4 7 8 8 8 11 16 23 26 29 30 26 25 24 23 25 29 30 26 21 17 15 16 17 17 16 15 14 12 11 11 12 12 12 12 12 11 9 7 5 2
0 0 0 0 0 0 0 1 3 5 7 7 8 11 17 21 24 27 28 27 26 25 23 24 27 28 24 19 17 17 15 13 13 14 14 13 11 10 9 10 10 10 10 10 8 8 7 4 2
0 0 0 0 0 0 0 1 2 4 6 7 8 12 17 20 21 22 24 26 25 23 21 20 23 25 23 18 16 16 13 10 11 13 14 13 11 9 8 9 9 10 9 8 7 7 6 5 3
0 0 0 0 0 0 0 1 4 6 7 9 11 15 19 20 20 20 22 23 23 21 17 16 18 21 21 17 14 12 10 9 10 12 13 12 10 8 8 10 11 10 9 7 7 6 6 6 5
0 0 0 0 0 0 1 4 7 9 10 11 14 19 20 19 18 18 19 19 19 17 15 14 15 18 17 14 12 11 9 8 9 11 12 12 10 8 9 12 11 9 7 6 6 6 6 6 6
0 0 0 0 0 1 2 5 9 10 10 10 13 16 15 14 13 14 14 15 15 14 13 13 13 13 11 8 7 8 8 8 8 10 11 10 9 8 9 10 9 7 6 4 4 4 4 5 6
0 0 0 0 0 0 1 4 7 9 8 7 8 10 9 9 10 10 10 12 14 14 12 11 11 9 6 4 3 4 5 6 7 8 9 7 6 7 7 7 7 6 4 4 4 3 3 4 5
0 0 0 0 0 0 0 3 6 8 7 5 5 8 8 8 9 8 9 11 13 12 9 9 8 7 4 3 2 2 3 4 5 6 6 5 4 5 6 6 6 6 4 4 4 4 3 3 4
0 0 0 0 0 0 1 4 7 8 7 5 4 7 9 10 9 8 8 10 11 9 6 6 6 5 4 3 3 3 3 4 4 4 4 4 4 5 6 6 6 6 4 4 5 4 3 3 3

GEFSSGP_con_prob3kmehi_228.txt.gz
EHI
0 0 0 0 0 0 0 0 0 0 1 5 7 8 7 4 3 4 4 6 12 14 15 25 38 45 47 44 38 32 27 23 19 19 20 21 20 19 16 11 6 5 5 4 3 4 3 3 4
0 0 0 0 0 0 0 0 0 0 2 7 9 9 8 5 4 6 7 11 16 15 13 22 36 43 45 43 38 33 29 25 21 19 19 19 19 18 16 12 7 5 4 3 2 2 3 3 3
0 0 0 0 0 0 0 0 0 0 4 9 12 11 9 7 7 9 12 17 19 16 14 23 36 41 42 40 36 33 30 27 24 20 19 18 17 15 14 11 8 5 3 2 1 1 2 3 3
0 0 0 0 0 0 0 0 0 0 4 11 16 15 11 9 11 15 18 19 18 13 12 22 33 38 38 36 33 31 28 26 24 21 19 19 18 15 12 10 8 5 3 1 1 2 3 3 4
0 0 0 0 0 0 0 0 0 0 4 12 18 19 14 14 19 24 23 21 17 11 9 17 30 35 34 32 32 31 27 24 22 21 20 19 18 17 14 10 7 5 4 2 1 2 3 3 3
0 0 0 0 0 0 0 0 0 2 6 14 18 18 16 18 24 25 24 23 20 15 13 19 28 31 29 28 30 30 27 24 23 23 22 20 19 19 18 14 9 7 6 5 3 2 2 2 3
0 0 0 0 0 0 0 0 1 4 10 16 18 17 16 19 23 23 23 25 22 19 20 25 26 24 21 21 24 25 26 24 24 24 24 23 21 20 20 18 15 12 10 8 6 4 3 3 4
0 0 0 0 0 0 0 1 3 7 12 16 17 14 13 17 23 25 24 23 20 17 20 24 24 19 17 18 18 20 24 26 25 25 24 24 21 17 17 19 18 16 14 12 10 8 6 6 6
0 0 0 0 0 0 1 2 4 8 12 14 15 15 15 20 26 27 24 20 15 13 15 19 21 19 18 17 16 17 21 23 23 22 22 21 18 14 14 16 17 16 16 16 14 12 10 9 8
0 0 0 0 0 0 1 3 6 10 12 13 15 19 22 25 27 23 19 16 13 12 13 14 16 17 17 15 15 16 17 18 17 16 16 16 15 14 14 14 15 15 15 16 16 16 14 13 12
0 0 0 0 0 1 2 4 7 12 15 17 19 23 25 25 22 18 15 14 14 14 12 10 11 12 13 14 14 14 15 15 14 13 12 12 13 14 14 14 13 13 13 14 15 16 17 16 15
0 0 0 0 0 1 3 5 9 13 17 20 21 22 22 20 17 16 16 16 17 16 14 10 9 10 11 13 15 15 16 16 14 12 11 11 12 13 13 13 11 10 10 11 13 14 16 15 14
0 0 1 0 0 1 3 5 7 10 15 19 19 18 17 16 16 18 20 20 20 19 17 13 11 10 11 13 14 15 15 14 13 12 11 11 12 12 12 12 11 11 11 11 11 12 13 13 13
0 0 0 0 0 1 1 3 5 8 11 14 15 15 15 16 19 22 21 19 19 19 17 14 12 11 12 13 12 10 9 11 12 12 11 11 12 12 11 10 11 13 14 13 12 12 12 12 12
0 0 0 0 0 0 0 1 3 6 7 8 11 13 15 17 20 20 17 15 16 16 14 12 10 9 10 11 11 8 7 8 10 10 11 12 12 12 11 10 11 12 14 14 13 12 11 10 9
0 0 0 0 0 0 0 0 2 6 6 6 8 11 14 16 16 14 12 10 11 11 11 11 10 8 7 9 10 8 7 8 9 8 9 10 11 11 11 11 11 11 12 12 11 10 9 7 6
0 0 0 0 0 0 0 0 2 6 7 7 9 10 13 14 12 9 8 8 7 7 8 9 10 9 8 9 9 7 6 7 8 7 8 8 10 10 11 11 11 10 9 8 8 8 6 4 3
0 0 0 0 0 0 0 0 2 5 7 7 7 9 11 12 9 7 6 6 6 6 7 8 9 11 11 11 10 7 4 4 6 7 7 7 8 9 9 9 9 10 9 7 6 6 4 2 1
0 0 0 0 0 0 1 1 2 4 6 6 5 7 10 11 8 7 6 6 7 7 8 8 8 10 12 11 10 7 4 3 4 6 6 6 7 7 7 7 8 9 10 7 5 4 3 1 0
0 0 0 0 0 1 2 3 5 6 6 6 6 8 10 11 9 9 10 11 10 10 10 10 9 10 11 11 9 6 4 4 5 5 5 5 5 5 6 6 7 8 9 7 4 3 2 1 0
0 0 0 0 0 1 2 3 4 5 5 6 7 8 11 13 12 14 16 16 15 14 12 12 10 9 9 10 8 6 6 6 6 5 5 5 4 5 6 7 7 8 8 6 3 2 1 0 0
0 0 0 0 0 0 1 1 2 2 3 5 6 7 10 14 15 17 19 19 15 13 12 11 9 8 8 8 8 7 7 6 5 5 5 4 3 3 5 7 8 9 8 4 1 1 0 0 0
0 0 0 0 0 0 0 1 0 1 3 5 5 6 9 12 15 17 18 17 12 9 9 8 6 6 6 6 6 8 8 7 5 5 5 4 2 3 5 7 7 8 7 3 1 0 0 0 0
0 0 0 0 0 0 0 0 0 1 3 5 5 6 7 9 11 12 13 12 8 6 6 5 4 4 4 4 5 7 8 7 6 6 4 3 3 3 5 6 7 6 5 3 1 0 0 0 0
0 0 0 0 0 0 0 0 0 1 3 5 6 6 5 6 7 8 8 8 7 6 6 5 4 3 3 3 4 5 6 6 6 5 3 2 3 3 4 5 5 5 4 3 2 1 0 0 0
0 0 0 0 0 0 0 0 0 1 3 5 6 6 5 4 5 6 5 6 6 7 7 6 4 3 3 3 3 4 4 4 4 3 1 1 2 3 3 3 3 2 2 3 2 1 1 0 0
0 0 0 0 0 0 0 0 0 1 3 4 5 4 3 2 3 3 2 3 5 6 6 6 5 4 3 1 1 3 3 3 2 1 0 1 2 3 2 2 1 0 1 1 2 2 2 1 1
0 0 0 0 0 0 0 0 0 1 2 3 2 1 1 0 1 1 1 2 3 4 5 4 3 3 2 1 1 2 3 2 1 0 0 1 2 3 2 1 0 0 0 0 1 2 2 2 2
0 0 0 0 0 0 0 0 0 0 1 1 0 0 0 0 0 0 0 2 3 3 3 1 1 1 1 0 1 1 1 1 0 0 0 1 3 2 1 0 0 0 0 0 0 1 1 1 2
0 0 0 0 0 0 0 0 0 0 0 0 1 1 1 0 0 0 0 1 3 3 1 0 0 0 0 0 0 1 0 0 0 0 1 2 3 2 1 0 0 0 0 0 0 0 0 0 1

GEFSSGP_con_prob3kmehi_234.txt.gz
EHI
0 0 0 0 0 0 0 0 0 0 0 0 1 0 0 0 0 0 0 2 6 11 15 19 25 28 32 38 43 46 46 47 50 53 54 50 43 39 34 29 24 21 20 19 16 12 7 4 4
0 0 0 0 0 0 0 0 0 0 0 0 1 0 0 0 0 1 1 4 11 15 17 21 26 29 31 35 41 44 43 43 46 50 50 45 39 35 32 28 23 21 21 20 16 12 8 6 5
0 0 0 0 0 0 0 0 0 0 0 0 0 0 0 0 1 1 3 7 14 18 17 21 27 30 31 33 38 40 39 39 40 42 42 38 33 31 28 25 21 19 19 18 15 12 10 8 7
0 0 0 0 0 0 0 0 0 0 0 0 1 1 2 2 1 2 5 9 15 18 18 23 31 33 31 31 34 36 36 35 34 35 34 32 28 26 24 20 17 16 15 14 13 12 11 10 9
0 0 0 0 0 0 0 0 0 0 0 1 3 4 4 3 2 5 8 11 15 19 21 27 34 35 31 28 29 32 33 33 32 30 28 26 24 22 20 17 16 14 13 11 9 10 10 10 10
0 0 0 0 0 0 0 0 0 0 0 2 3 4 3 3 5 8 11 13 17 21 23 27 31 32 29 26 26 29 32 32 31 29 26 22 20 20 19 17 14 12 11 9 7 7 7 7 7
0 0 0 0 0 0 0 0 0 0 1 2 3 2 2 4 8 12 13 15 18 22 22 22 24 25 24 23 24 28 31 32 30 28 25 21 18 18 18 16 13 10 8 7 6 5 5 5 4
0 0 0 0 0 0 0 0 0 0 1 2 3 2 3 8 14 16 15 16 18 19 18 17 18 20 18 18 20 24 27 28 27 25 22 18 15 15 16 16 13 10 9 8 7 6 5 5 4
0 0 0 0 0 0 0 0 0 1 2 5 6 6 9 17 23 21 17 15 15 14 12 12 14 15 14 14 16 19 20 20 20 18 16 14 13 13 14 14 13 12 12 12 10 8 7 6 5
0 0 0 0 0 0 0 0 1 3 5 8 11 14 19 25 27 24 18 13 12 10 7 7 8 10 10 12 13 13 13 13 13 11 10 10 10 11 12 12 12 12 13 13 10 9 9 8 7
0 0 0 0 0 0 1 1 2 5 6 9 14 20 25 27 26 22 16 12 10 8 5 3 3 6 8 11 11 11 11 12 11 9 8 8 8 10 11 10 10 11 11 11 10 10 10 9 8
0 0 0 0 0 1 2 3 4 5 7 10 16 23 26 25 22 17 12 9 8 6 4 2 2 4 7 9 10 10 11 12 11 8 7 7 8 9 10 9 9 10 11 11 10 11 10 8 7
0 0 0 0 0 1 2 3 4 5 8 12 17 21 22 20 17 14 10 8 7 6 3 3 3 4 6 7 6 7 8 9 8 6 6 6 6 6 6 6 7 9 11 11 11 10 10 9 8
0 0 0 0 0 1 2 3 2 4 9 13 15 16 15 13 11 10 9 9 9 7 5 4 4 3 4 4 3 3 4 5 5 4 4 4 4 4 3 3 3 5 7 9 9 9 9 9 8
0 0 0 0 0 1 2 2 2 4 9 11 11 10 8 8 8 7 8 9 9 8 8 7 5 4 3 2 1 1 1 2 1 2 3 3 3 4 3 2 1 2 4 6 6 7 7 7 7
0 0 0 0 0 0 1 1 1 4 8 9 8 6 5 5 5 5 6 7 7 8 9 9 7 4 2 1 0 0 0 0 0 1 2 3 4 5 4 2 1 2 3 4 4 5 6 6 6
0 0 0 0 0 0 0 0 1 4 7 7 7 5 4 3 3 4 4 4 4 6 8 9 7 3 1 0 0 0 0 0 0 1 2 3 4 5 5 3 3 3 3 3 3 3 3 3 4
0 0 0 0 0 0 0 0 1 3 5 6 7 6 4 3 3 3 4 4 4 5 5 6 5 2 0 1 1 0 0 0 1 1 1 3 4 4 4 3 3 3 3 3 3 2 1 2 2
0 0 0 0 0 0 0 0 0 2 4 6 7 6 5 4 4 4 5 5 5 5 4 4 3 1 0 1 2 1 0 0 0 0 1 3 4 4 3 2 2 2 2 2 2 2 1 1 2
0 0 0 0 0 0 0 0 0 2 3 5 5 4 4 4 4 6 7 6 6 5 4 3 2 1 0 1 2 2 1 0 0 0 1 2 3 3 3 2 1 1 1 0 1 1 1 1 2
0 0 0 0 0 0 0 0 0 1 2 2 2 1 2 2 4 7 8 7 6 5 4 3 2 1 0 1 3 3 2 2 1 1 1 1 2 2 2 2 1 1 1 1 0 0 0 1 2
0 0 0 0 0 0 0 0 0 0 1 1 1 1 2 3 5 7 8 7 6 5 4 4 2 1 1 2 3 3 3 3 3 2 1 0 1 1 1 1 2 2 2 2 1 0 0 0 1
0 0 0 0 0 0 0 0 0 0 0 1 2 3 4 4 5 6 6 6 5 4 4 3 2 2 2 3 3 3 3 4 3 2 1 0 0 0 0 1 1 1 1 1 1 0 0 0 1
0 0 0 0 0 0 0 0 0 0 0 2 3 3 4 4 4 4 4 4 4 3 3 3 2 2 3 3 3 3 3 2 3 2 1 0 0 0 0 0 0 0 0 0 0 0 0 0 1
0 0 0 0 0 0 0 0 0 0 0 2 3 3 3 3 3 4 4 4 4 4 3 2 1 1 2 3 3 2 1 1 2 2 1 0 0 0 0 0 0 0 0 0 0 0 0 0 1
0 0 0 0 0 0 0 0 0 0 0 1 3 3 3 2 3 4 5 5 5 4 4 3 1 0 1 2 1 1 0 1 2 2 1 0 0 0 0 0 0 0 0 0 0 0 0 0 0
0 0 0 0 0 0 0 0 0 0 0 1 2 3 2 1 1 3 3 3 3 3 3 3 2 1 0 0 0 0 0 1 2 2 1 0 0 0 0 0 0 0 0 0 0 0 0 0 0
0 0 0 0 0 0 0 0 0 0 0 1 2 3 2 1 0 1 1 1 1 1 2 3 2 1 0 0 0 0 0 1 2 2 1 0 0 0 0 0 0 0 0 0 0 0 0 0 0
0 0 0 0 0 0 0 0 0 0 0 1 2 3 2 1 0 0 0 0 0 1 1 1 1 0 0 0 0 0 0 1 2 2 1 0 0 0 0 0 0 0 0 0 0 0 0 0 0
0 0 0 0 0 0 0 0 0 0 0 0 1 3 2 1 0 0 0 0 0 0 1 0 0 0 0 0 0 0 0 1 2 1 0 0 0 0 0 0 0 0 0 0 0 0 0 0 0

GEFSSGP_con_prob3kmehi_240.txt.gz
EHI
0 0 0 0 0 0 0 0 0 0 0 0 0 0 0 0 0 1 4 6 7 10 14 20 25 25 22 22 27 31 33 36 40 42 40 38 37 34 29 25 22 21 19 16 15 14 12 9 7
0 0 0 0 0 0 0 0 0 0 0 0 0 0 0 0 1 2 4 7 7 10 15 21 26 25 22 24 29 33 34 34 36 37 37 38 38 35 31 25 21 19 19 17 14 14 13 11 9
0 0 0 0 0 0 0 0 0 0 0 0 0 0 0 1 1 2 6 9 10 11 16 25 29 27 25 26 29 32 32 30 31 31 32 34 34 31 29 25 19 16 16 16 14 13 13 12 10
0 0 0 0 0 0 0 0 0 0 0 0 0 0 1 1 1 3 8 12 12 12 16 25 30 29 28 28 28 28 27 26 27 28 28 28 26 23 21 20 18 15 13 13 13 12 12 11 10
0 0 0 0 0 0 0 0 0 0 0 0 0 0 1 1 1 5 9 12 12 12 16 23 29 29 29 29 26 24 23 24 25 26 26 25 22 18 15 14 14 13 12 12 13 12 12 11 10
0 0 0 0 0 0 0 0 0 0 0 1 0 0 0 1 2 6 10 11 10 11 16 22 26 28 28 27 24 21 21 23 24 24 24 23 20 17 13 10 10 12 12 13 13 13 12 11 11
0 0 0 0 0 0 0 0 0 0 0 0 0 0 0 3 6 9 11 10 9 10 14 17 20 23 24 23 21 19 20 21 20 20 19 18 17 16 13 10 9 11 13 13 13 13 12 11 11
0 0 0 0 0 0 0 0 0 0 0 0 0 0 3 9 13 13 12 12 10 10 12 13 14 16 18 20 20 18 18 19 17 15 13 13 15 15 13 11 10 12 13 13 13 13 11 10 10
0 0 0 0 0 0 0 0 0 0 0 0 1 2 7 16 20 18 15 14 13 11 11 11 10 10 12 16 19 18 17 17 16 14 13 13 14 14 11 10 10 11 11 11 12 13 11 10 10
0 0 0 0 0 0 0 0 0 0 0 0 2 5 12 19 22 21 19 18 16 13 11 10 8 7 9 12 15 16 15 16 15 15 15 16 16 15 11 9 9 9 9 10 10 10 10 10 10
0 0 0 0 0 0 0 0 0 0 0 1 4 9 13 16 20 23 24 21 17 14 12 10 8 8 8 9 11 13 14 14 13 14 16 17 17 16 14 11 9 7 8 8 8 7 7 8 8
0 0 0 0 0 0 0 0 0 0 1 3 7 11 13 14 19 24 24 20 15 13 11 8 8 10 10 10 11 12 13 12 11 12 13 15 16 16 15 12 8 7 7 7 7 6 5 5 5
0 0 0 0 0 0 0 0 0 1 3 5 8 11 12 12 16 20 20 17 13 10 8 8 9 11 13 14 13 12 10 10 10 11 11 12 14 14 13 10 7 6 6 6 6 5 3 2 3
0 0 0 0 0 0 0 0 0 1 3 5 7 10 11 11 12 14 14 12 10 8 8 9 11 12 14 14 13 10 7 7 9 10 9 9 10 12 11 9 7 6 5 5 5 3 2 1 1
0 0 0 0 0 0 0 0 0 0 2 3 4 7 10 10 9 10 10 10 8 7 8 10 12 13 14 14 13 9 5 5 7 8 7 6 7 10 11 8 6 5 4 4 3 2 1 0 0
0 0 0 0 0 0 0 0 0 1 2 2 2 4 8 9 8 7 9 8 7 7 9 11 11 12 14 15 15 10 6 6 7 6 5 4 5 8 9 7 5 4 3 3 3 2 1 0 0
0 0 0 0 0 0 0 0 1 1 2 1 1 2 5 7 7 6 6 6 7 7 9 10 11 12 14 15 15 11 8 7 7 5 4 4 4 5 6 5 3 3 3 4 4 3 2 1 1
0 0 0 0 0 0 0 0 1 2 1 1 1 2 4 6 6 6 5 5 6 7 8 10 12 14 15 15 14 11 8 7 7 5 3 3 3 3 3 3 2 2 3 5 5 4 3 3 2
0 0 0 0 0 0 0 1 2 2 1 1 2 3 4 5 6 6 6 5 4 6 8 10 12 15 17 17 16 13 9 8 7 4 2 2 3 3 3 4 4 3 3 5 6 4 3 3 3
0 0 0 0 0 0 0 1 2 3 2 2 3 4 4 4 6 7 8 7 5 6 9 10 11 14 17 18 18 17 13 10 6 4 3 3 3 3 3 5 5 3 3 4 5 4 4 3 3
0 0 0 0 0 0 0 0 1 2 2 2 3 3 3 3 4 7 9 7 5 7 10 11 12 14 16 17 17 16 15 11 6 3 4 4 3 3 3 4 3 2 2 3 3 4 4 4 3
0 0 0 0 0 0 0 0 1 1 1 1 2 2 1 1 3 6 7 4 3 6 9 12 15 16 15 15 14 14 13 10 5 4 4 4 3 3 3 4 4 3 2 3 3 3 3 3 2
0 0 0 0 0 0 0 0 0 0 0 0 1 1 1 0 2 4 4 4 3 5 8 10 14 16 15 14 14 12 10 8 6 5 5 4 3 3 3 4 6 5 4 4 3 2 2 1 1
0 0 0 0 0 0 0 0 0 1 1 0 0 1 1 2 4 5 5 5 5 6 8 9 11 12 13 13 11 8 7 6 6 6 5 4 4 4 4 4 6 7 6 4 2 1 0 0 1
0 0 0 0 0 0 0 0 1 2 1 0 0 1 3 5 7 8 7 7 7 8 10 11 10 9 9 9 8 6 5 6 6 6 5 4 4 4 3 3 5 6 4 2 1 0 1 1 2
0 0 0 0 0 0 0 1 2 1 1 0 0 1 3 6 8 8 7 7 9 10 11 11 9 7 7 6 5 5 6 6 6 6 5 5 4 2 1 2 4 3 2 1 0 1 2 3 3
0 0 0 0 0 0 0 0 1 0 0 0 0 1 3 6 7 7 7 8 10 10 11 9 7 6 6 6 4 4 5 6 6 5 5 4 3 1 0 0 1 2 1 0 1 1 3 3 3
0 0 0 0 0 0 0 0 0 0 0 0 1 2 5 6 6 6 6 7 8 8 7 6 4 3 5 5 4 2 3 3 3 3 4 3 1 1 1 1 0 0 0 1 2 3 3 3 3
0 0 0 0 0 0 0 0 1 0 0 1 2 3 5 6 6 6 4 4 4 5 4 4 2 1 2 3 2 1 1 1 1 1 2 2 1 2 2 1 0 0 0 1 2 2 2 3 3
0 0 0 0 0 0 0 0 1 0 1 2 4 4 5 6 6 5 2 2 3 3 2 2 1 0 0 1 1 0 0 0 0 1 2 1 1 2 3 1 0 0 0 0 1 1 1 2 3

GEFSSGP_con_prob3kmehi_246.txt.gz
EHI
0 0 0 1 2 2 1 0 0 0 0 1 1 1 2 1 2 6 13 25 36 35 26 25 27 23 17 14 13 9 7 8 9 7 6 6 6 6 8 10 10 11 13 14 13 12 10 9 9
0 0 0 1 1 1 0 0 0 0 0 1 1 1 3 3 5 10 18 27 33 29 26 29 31 25 16 13 12 11 9 8 9 8 8 7 7 7 8 8 9 10 11 12 11 9 9 8 9
0 0 0 0 0 0 0 0 0 0 0 0 0 2 5 6 8 13 20 26 28 26 29 36 34 26 18 13 12 12 11 10 10 10 11 11 9 8 7 6 7 8 9 10 9 7 6 6 8
0 0 0 0 0 0 0 0 0 0 0 0 1 4 7 9 11 13 17 21 25 28 32 35 34 28 20 16 14 13 12 12 12 13 14 15 13 9 6 4 5 6 7 8 9 8 6 6 8
0 0 0 0 0 0 0 0 0 0 0 1 3 6 8 9 11 11 13 18 23 28 30 31 32 29 24 20 19 17 14 13 14 16 16 16 16 11 6 4 3 4 5 6 7 9 9 9 9
0 0 0 0 0 0 0 0 0 0 1 2 5 7 7 8 9 9 11 16 22 27 28 27 28 29 25 23 23 22 18 17 18 19 18 17 15 11 5 3 3 2 3 4 6 8 10 9 8
0 0 0 0 0 0 0 0 0 1 3 3 3 6 9 11 10 9 11 16 22 25 23 21 21 23 22 22 24 24 23 22 23 23 22 20 15 10 6 4 3 2 2 3 5 7 8 8 7
0 0 0 0 0 0 0 0 0 1 2 1 2 7 14 16 12 9 11 16 21 21 18 15 15 16 15 17 20 22 23 23 24 24 23 21 16 10 7 6 7 6 5 5 6 7 7 6 4
0 0 0 0 0 0 0 0 0 0 0 0 3 9 16 17 13 10 13 17 20 19 15 12 13 13 12 12 16 21 22 21 21 20 20 19 16 12 9 11 15 14 10 7 7 7 6 4 3
0 0 0 0 0 0 0 0 0 0 0 2 6 11 14 14 13 13 15 18 20 19 17 15 16 15 13 13 16 19 20 20 20 20 20 18 17 15 14 18 22 19 11 8 8 7 6 4 4
0 0 0 0 0 0 0 0 0 0 0 3 10 13 13 14 16 19 21 21 21 20 20 21 22 21 20 19 18 17 18 20 20 21 22 20 17 16 17 20 21 15 9 8 8 7 5 5 5
0 0 0 0 0 0 0 0 0 0 2 5 11 14 14 16 20 24 27 26 23 21 22 25 27 28 29 27 22 18 19 20 21 23 24 22 19 17 16 17 15 10 8 8 7 6 4 3 4
0 0 0 0 0 0 0 0 0 1 4 6 11 15 16 18 23 27 29 28 24 22 23 26 30 34 36 33 27 24 23 23 23 25 26 25 21 18 16 14 12 8 6 7 7 5 4 2 2
0 0 0 0 0 0 0 0 0 2 4 7 11 15 17 19 24 27 30 30 27 24 25 27 30 35 38 35 30 26 25 26 26 26 25 24 22 19 17 14 11 8 6 6 6 7 6 3 1
0 0 0 0 0 0 0 0 2 4 5 6 9 13 16 19 23 26 29 31 29 26 27 27 29 34 37 34 28 25 23 25 28 27 24 22 21 18 16 15 13 10 9 8 8 8 7 4 1
0 0 1 1 0 0 0 1 4 6 6 5 7 10 14 18 20 22 26 29 29 27 28 27 28 34 36 32 26 23 22 24 27 27 24 22 20 18 16 17 16 14 12 12 10 9 7 4 2
0 0 1 1 0 0 0 1 5 7 6 4 5 8 14 17 17 18 21 26 28 28 29 30 30 34 34 29 25 22 22 24 24 24 23 21 19 18 18 19 17 14 14 13 11 9 7 4 2
0 0 1 1 0 0 0 1 4 5 4 4 5 9 14 18 18 18 21 26 30 31 33 34 34 34 31 27 24 23 24 24 21 19 20 20 18 16 18 20 17 13 12 13 11 9 7 4 3
0 0 0 0 0 0 0 1 3 4 4 4 5 8 13 17 21 24 25 28 33 35 35 36 37 35 32 28 27 26 26 24 19 16 17 19 17 15 15 18 17 14 13 12 11 8 7 6 4
0 0 0 0 0 0 0 1 3 4 4 4 4 5 9 16 23 28 29 29 32 34 34 34 36 37 36 33 30 28 27 22 16 14 16 17 15 12 12 15 15 14 14 13 11 8 6 5 5
0 0 0 0 0 0 0 1 3 5 5 4 2 3 6 13 23 28 29 29 30 31 32 32 35 37 38 37 32 29 26 21 15 15 15 14 11 9 9 12 14 13 13 12 9 6 4 3 2
0 0 0 0 0 0 0 1 3 5 6 4 2 2 5 11 19 25 26 26 27 30 32 32 34 36 36 35 32 29 25 20 16 16 15 12 10 8 9 11 13 12 10 8 6 4 3 2 1
0 0 0 0 0 0 0 0 2 5 5 3 3 4 7 11 16 21 23 23 25 29 34 35 34 33 32 31 30 27 23 18 16 16 14 11 9 9 9 11 12 10 8 6 4 3 3 2 1
0 0 0 0 0 0 0 0 1 3 3 2 2 5 8 11 14 18 21 22 25 29 34 35 33 31 29 27 26 22 19 17 17 16 14 11 10 10 10 11 11 10 9 7 6 4 3 2 1
0 0 0 0 0 0 0 1 1 2 2 2 3 6 8 10 13 15 18 23 27 30 32 32 30 28 26 24 22 19 18 17 16 15 14 13 12 11 10 10 11 11 10 9 8 6 4 3 2
0 0 0 0 0 0 1 2 3 2 3 4 5 7 8 10 12 14 17 23 29 31 31 29 26 25 23 22 22 20 18 15 13 13 13 13 13 10 9 9 9 10 10 9 9 6 4 3 3
0 0 0 0 0 0 1 3 4 4 5 5 5 6 8 10 12 14 17 23 28 30 29 26 23 20 20 20 19 19 17 13 10 10 10 11 11 8 6 7 7 8 8 8 9 7 5 4 4
0 0 1 0 0 0 0 2 4 5 6 5 4 5 8 10 13 16 20 24 28 28 25 22 19 16 15 15 15 14 13 11 9 7 7 9 8 6 4 4 5 5 6 7 8 7 6 4 3
0 0 0 0 0 0 0 1 3 5 6 6 6 8 11 13 16 19 22 25 26 24 18 15 14 12 10 10 11 11 10 9 7 6 5 7 7 5 4 3 4 3 4 5 6 5 4 3 2
0 0 0 0 1 1 1 1 3 5 6 7 8 11 14 16 17 21 22 22 22 19 14 11 10 9 7 8 9 9 8 7 6 5 5 6 6 5 4 3 3 3 4 4 4 3 2 2 2